Time,TemperatureF,DewpointF,PressureIn,WindDirection,WindDirectionDegrees,WindSpeedMPH,WindSpeedGustMPH,Humidity,HourlyPrecipIn,Conditions,Clouds,dailyrainin,SoftwareType,DateUTC
2013-12-25 00:10:00,18.2,14.0,30.53,SE,132,0.0,3.0,84,0.00,,,0.00,weatherlink.com 1.10,2013-12-25 05:10:00,
2013-12-25 00:26:00,18.5,15.0,30.52,SE,132,0.0,1.0,84,0.00,,,0.00,weatherlink.com 1.10,2013-12-25 05:26:00,
2013-12-25 00:41:00,18.9,15.0,30.51,ESE,108,2.0,2.0,84,0.00,,,0.00,weatherlink.com 1.10,2013-12-25 05:41:00,
2013-12-25 00:56:00,19.1,15.0,30.51,East,101,0.0,3.0,82,0.00,,,0.00,weatherlink.com 1.10,2013-12-25 05:56:00,
2013-12-25 01:11:00,19.4,14.0,30.50,ESE,112,2.0,4.0,79,0.00,,,0.00,weatherlink.com 1.10,2013-12-25 06:11:00,
2013-12-25 01:26:00,19.7,14.0,30.51,East,81,3.0,5.0,78,0.00,,,0.00,weatherlink.com 1.10,2013-12-25 06:26:00,
2013-12-25 01:41:00,19.5,13.0,30.50,East,94,0.0,3.0,77,0.00,,,0.00,weatherlink.com 1.10,2013-12-25 06:41:00,
2013-12-25 01:56:00,19.6,14.0,30.49,East,94,0.0,2.0,77,0.00,,,0.00,weatherlink.com 1.10,2013-12-25 06:56:00,
2013-12-25 02:11:00,19.8,14.0,30.50,ENE,75,0.0,4.0,77,0.00,,,0.00,weatherlink.com 1.10,2013-12-25 07:11:00,
2013-12-25 02:26:00,20.1,14.0,30.49,ESE,107,1.0,6.0,76,0.00,,,0.00,weatherlink.com 1.10,2013-12-25 07:26:00,
2013-12-25 02:41:00,20.4,14.0,30.50,ESE,121,2.0,4.0,75,0.00,,,0.00,weatherlink.com 1.10,2013-12-25 07:41:00,
2013-12-25 02:56:00,20.4,13.0,30.51,ESE,115,0.0,6.0,74,0.00,,,0.00,weatherlink.com 1.10,2013-12-25 07:56:00,
2013-12-25 03:11:00,20.3,13.0,30.51,ESE,111,0.0,3.0,74,0.00,,,0.00,weatherlink.com 1.10,2013-12-25 08:11:00,
2013-12-25 03:26:00,20.2,13.0,30.50,East,88,0.0,4.0,74,0.00,,,0.00,weatherlink.com 1.10,2013-12-25 08:26:00,
2013-12-25 03:41:00,20.1,13.0,30.51,East,96,3.0,3.0,74,0.00,,,0.00,weatherlink.com 1.10,2013-12-25 08:41:00,
2013-12-25 03:56:00,20.1,13.0,30.50,East,100,0.0,3.0,74,0.00,,,0.00,weatherlink.com 1.10,2013-12-25 08:56:00,
2013-12-25 04:11:00,20.2,13.0,30.50,ESE,107,0.0,2.0,74,0.00,,,0.00,weatherlink.com 1.10,2013-12-25 09:11:00,
2013-12-25 04:26:00,20.0,13.0,30.50,ESE,120,2.0,4.0,74,0.00,,,0.00,weatherlink.com 1.10,2013-12-25 09:26:00,
2013-12-25 04:41:00,20.2,13.0,30.49,SE,127,0.0,2.0,74,0.00,,,0.00,weatherlink.com 1.10,2013-12-25 09:41:00,
2013-12-25 04:56:00,20.2,13.0,30.49,East,97,1.0,3.0,74,0.00,,,0.00,weatherlink.com 1.10,2013-12-25 09:56:00,
2013-12-25 05:11:00,20.3,14.0,30.49,ESE,122,1.0,3.0,75,0.00,,,0.00,weatherlink.com 1.10,2013-12-25 10:11:00,
2013-12-25 05:26:00,20.2,13.0,30.49,ESE,120,0.0,6.0,74,0.00,,,0.00,weatherlink.com 1.10,2013-12-25 10:26:00,
2013-12-25 05:41:00,20.1,13.0,30.49,ESE,118,0.0,4.0,74,0.00,,,0.00,weatherlink.com 1.10,2013-12-25 10:41:00,
2013-12-25 05:56:00,19.9,13.0,30.49,ESE,115,1.0,2.0,74,0.00,,,0.00,weatherlink.com 1.10,2013-12-25 10:56:00,
2013-12-25 06:11:00,19.8,13.0,30.50,ESE,116,1.0,3.0,76,0.00,,,0.00,weatherlink.com 1.10,2013-12-25 11:11:00,
2013-12-25 06:26:00,19.8,14.0,30.49,ENE,68,2.0,2.0,77,0.00,,,0.00,weatherlink.com 1.10,2013-12-25 11:26:00,
2013-12-25 06:41:00,19.9,14.0,30.48,East,97,3.0,7.0,76,0.00,,,0.00,weatherlink.com 1.10,2013-12-25 11:41:00,
2013-12-25 06:56:00,19.8,13.0,30.48,East,99,1.0,7.0,75,0.00,,,0.00,weatherlink.com 1.10,2013-12-25 11:56:00,
2013-12-25 07:11:00,19.8,13.0,30.47,ESE,103,1.0,7.0,75,0.00,,,0.00,weatherlink.com 1.10,2013-12-25 12:11:00,
2013-12-25 07:26:00,20.0,13.0,30.47,SSW,198,0.0,6.0,75,0.00,,,0.00,weatherlink.com 1.10,2013-12-25 12:26:00,
2013-12-25 07:41:00,20.0,13.0,30.47,SE,146,2.0,5.0,74,0.00,,,0.00,weatherlink.com 1.10,2013-12-25 12:41:00,
2013-12-25 07:56:00,20.0,13.0,30.48,ESE,107,2.0,4.0,73,0.00,,,0.00,weatherlink.com 1.10,2013-12-25 12:56:00,
2013-12-25 08:11:00,19.9,12.0,30.47,ESE,103,0.0,5.0,72,0.00,,,0.00,weatherlink.com 1.10,2013-12-25 13:11:00,
2013-12-25 08:26:00,20.0,12.0,30.47,SSE,153,2.0,6.0,71,0.00,,,0.00,weatherlink.com 1.10,2013-12-25 13:26:00,
2013-12-25 08:41:00,20.3,12.0,30.48,SE,125,2.0,5.0,71,0.00,,,0.00,weatherlink.com 1.10,2013-12-25 13:41:00,
2013-12-25 08:56:00,20.3,12.0,30.47,SE,142,3.0,5.0,71,0.00,,,0.00,weatherlink.com 1.10,2013-12-25 13:56:00,
2013-12-25 09:12:00,20.4,12.0,30.45,East,101,2.0,8.0,71,0.00,,,0.00,weatherlink.com 1.10,2013-12-25 14:12:00,
2013-12-25 09:26:00,20.7,13.0,30.46,SE,127,2.0,7.0,71,0.00,,,0.00,weatherlink.com 1.10,2013-12-25 14:26:00,
2013-12-25 09:41:00,21.3,13.0,30.46,SE,140,1.0,5.0,70,0.00,,,0.00,weatherlink.com 1.10,2013-12-25 14:41:00,
2013-12-25 09:56:00,21.7,13.0,30.46,ESE,117,1.0,9.0,69,0.00,,,0.00,weatherlink.com 1.10,2013-12-25 14:56:00,
2013-12-25 10:11:00,22.4,14.0,30.46,SSW,200,2.0,7.0,69,0.00,,,0.00,weatherlink.com 1.10,2013-12-25 15:11:00,
2013-12-25 10:26:00,23.2,14.0,30.45,SE,130,5.0,7.0,68,0.00,,,0.00,weatherlink.com 1.10,2013-12-25 15:26:00,
2013-12-25 10:42:00,25.0,14.0,30.44,SE,138,3.0,9.0,64,0.00,,,0.00,weatherlink.com 1.10,2013-12-25 15:42:00,
2013-12-25 10:57:00,24.8,14.0,30.44,South,177,2.0,6.0,64,0.00,,,0.00,weatherlink.com 1.10,2013-12-25 15:57:00,
2013-12-25 11:12:00,25.3,15.0,30.43,SE,131,2.0,7.0,65,0.00,,,0.00,weatherlink.com 1.10,2013-12-25 16:12:00,
2013-12-25 11:27:00,26.7,15.0,30.41,SE,126,1.0,7.0,62,0.00,,,0.00,weatherlink.com 1.10,2013-12-25 16:27:00,
2013-12-25 11:42:00,27.9,15.0,30.40,South,172,2.0,9.0,59,0.00,,,0.00,weatherlink.com 1.10,2013-12-25 16:42:00,
2013-12-25 11:57:00,28.9,16.0,30.38,South,175,5.0,8.0,58,0.00,,,0.00,weatherlink.com 1.10,2013-12-25 16:57:00,
2013-12-25 12:12:00,30.0,16.0,30.36,SE,144,1.0,9.0,56,0.00,,,0.00,weatherlink.com 1.10,2013-12-25 17:12:00,
2013-12-25 12:27:00,30.6,15.0,30.35,South,191,1.0,10.0,53,0.00,,,0.00,weatherlink.com 1.10,2013-12-25 17:27:00,
2013-12-25 12:42:00,31.7,16.0,30.34,South,170,2.0,9.0,52,0.00,,,0.00,weatherlink.com 1.10,2013-12-25 17:42:00,
2013-12-25 12:57:00,31.8,14.0,30.32,South,180,6.0,16.0,49,0.00,,,0.00,weatherlink.com 1.10,2013-12-25 17:57:00,
2013-12-25 13:12:00,32.2,15.0,30.31,ESE,113,5.0,9.0,50,0.00,,,0.00,weatherlink.com 1.10,2013-12-25 18:12:00,
2013-12-25 13:27:00,33.1,16.0,30.30,South,183,1.0,12.0,49,0.00,,,0.00,weatherlink.com 1.10,2013-12-25 18:27:00,
2013-12-25 13:42:00,33.8,16.0,30.30,South,178,2.0,7.0,48,0.00,,,0.00,weatherlink.com 1.10,2013-12-25 18:42:00,
2013-12-25 13:57:00,34.7,14.0,30.30,SSE,165,3.0,8.0,43,0.00,,,0.00,weatherlink.com 1.10,2013-12-25 18:57:00,
2013-12-25 14:12:00,35.3,14.0,30.30,South,173,2.0,9.0,42,0.00,,,0.00,weatherlink.com 1.10,2013-12-25 19:12:00,
2013-12-25 14:27:00,35.2,14.0,30.29,SSW,194,7.0,12.0,42,0.00,,,0.00,weatherlink.com 1.10,2013-12-25 19:27:00,
2013-12-25 14:42:00,35.4,14.0,30.28,SSW,196,3.0,9.0,42,0.00,,,0.00,weatherlink.com 1.10,2013-12-25 19:42:00,
2013-12-25 14:57:00,35.5,15.0,30.28,South,184,4.0,7.0,43,0.00,,,0.00,weatherlink.com 1.10,2013-12-25 19:57:00,
2013-12-25 15:12:00,35.5,15.0,30.29,South,173,1.0,6.0,43,0.00,,,0.00,weatherlink.com 1.10,2013-12-25 20:12:00,
2013-12-25 15:27:00,35.5,15.0,30.28,South,180,1.0,5.0,43,0.00,,,0.00,weatherlink.com 1.10,2013-12-25 20:27:00,
2013-12-25 15:42:00,35.5,15.0,30.29,SSW,193,2.0,5.0,44,0.00,,,0.00,weatherlink.com 1.10,2013-12-25 20:42:00,
2013-12-25 15:57:00,35.5,15.0,30.29,South,180,1.0,9.0,44,0.00,,,0.00,weatherlink.com 1.10,2013-12-25 20:57:00,
2013-12-25 16:12:00,35.6,16.0,30.29,South,169,1.0,6.0,45,0.00,,,0.00,weatherlink.com 1.10,2013-12-25 21:12:00,
2013-12-25 16:27:00,35.6,17.0,30.28,South,173,2.0,6.0,46,0.00,,,0.00,weatherlink.com 1.10,2013-12-25 21:27:00,
2013-12-25 16:42:00,35.7,17.0,30.28,SSE,164,4.0,8.0,47,0.00,,,0.00,weatherlink.com 1.10,2013-12-25 21:42:00,
2013-12-25 16:57:00,35.7,18.0,30.29,South,188,5.0,7.0,48,0.00,,,0.00,weatherlink.com 1.10,2013-12-25 21:57:00,
2013-12-25 17:13:00,35.6,18.0,30.28,South,179,1.0,8.0,48,0.00,,,0.00,weatherlink.com 1.10,2013-12-25 22:13:00,
2013-12-25 17:28:00,35.6,18.0,30.28,South,180,1.0,5.0,48,0.00,,,0.00,weatherlink.com 1.10,2013-12-25 22:28:00,
2013-12-25 17:43:00,35.5,18.0,30.28,South,179,0.0,6.0,49,0.00,,,0.00,weatherlink.com 1.10,2013-12-25 22:43:00,
2013-12-25 17:58:00,35.5,18.0,30.28,South,179,0.0,2.0,49,0.00,,,0.00,weatherlink.com 1.10,2013-12-25 22:58:00,
2013-12-25 18:13:00,35.5,19.0,30.27,South,173,3.0,9.0,51,0.00,,,0.00,weatherlink.com 1.10,2013-12-25 23:13:00,
2013-12-25 18:28:00,35.2,20.0,30.27,South,175,2.0,12.0,54,0.00,,,0.00,weatherlink.com 1.10,2013-12-25 23:28:00,
2013-12-25 18:43:00,35.3,20.0,30.27,South,180,0.0,5.0,54,0.00,,,0.00,weatherlink.com 1.10,2013-12-25 23:43:00,
2013-12-25 18:58:00,35.5,20.0,30.27,South,180,0.0,2.0,53,0.00,,,0.00,weatherlink.com 1.10,2013-12-25 23:58:00,
2013-12-25 19:13:00,35.4,20.0,30.26,South,180,0.0,2.0,53,0.00,,,0.00,weatherlink.com 1.10,2013-12-26 00:13:00,
2013-12-25 19:28:00,35.3,20.0,30.26,South,180,0.0,0.0,54,0.00,,,0.00,weatherlink.com 1.10,2013-12-26 00:28:00,
2013-12-25 19:43:00,35.2,20.0,30.25,South,180,0.0,1.0,55,0.00,,,0.00,weatherlink.com 1.10,2013-12-26 00:43:00,
2013-12-25 19:58:00,35.3,20.0,30.26,South,180,0.0,3.0,55,0.00,,,0.00,weatherlink.com 1.10,2013-12-26 00:58:00,
2013-12-25 20:13:00,35.3,21.0,30.26,South,180,0.0,0.0,57,0.00,,,0.00,weatherlink.com 1.10,2013-12-26 01:13:00,
2013-12-25 20:28:00,35.3,22.0,30.26,South,180,0.0,0.0,58,0.00,,,0.00,weatherlink.com 1.10,2013-12-26 01:28:00,
2013-12-25 20:43:00,35.2,22.0,30.25,South,180,0.0,0.0,58,0.00,,,0.00,weatherlink.com 1.10,2013-12-26 01:43:00,
2013-12-25 20:58:00,34.8,21.0,30.25,South,180,0.0,1.0,58,0.00,,,0.00,weatherlink.com 1.10,2013-12-26 01:58:00,
2013-12-25 21:13:00,34.9,21.0,30.25,South,180,0.0,2.0,58,0.00,,,0.00,weatherlink.com 1.10,2013-12-26 02:13:00,
2013-12-25 21:28:00,34.8,21.0,30.25,South,180,0.0,1.0,58,0.00,,,0.00,weatherlink.com 1.10,2013-12-26 02:28:00,
2013-12-25 21:43:00,34.9,22.0,30.25,South,180,0.0,0.0,59,0.00,,,0.00,weatherlink.com 1.10,2013-12-26 02:43:00,
2013-12-25 21:58:00,34.9,22.0,30.25,South,180,0.0,1.0,59,0.00,,,0.00,weatherlink.com 1.10,2013-12-26 02:58:00,
2013-12-25 22:13:00,35.0,22.0,30.24,South,180,0.0,1.0,59,0.00,,,0.00,weatherlink.com 1.10,2013-12-26 03:13:00,
2013-12-25 22:28:00,34.9,21.0,30.23,South,180,0.0,1.0,58,0.00,,,0.00,weatherlink.com 1.10,2013-12-26 03:28:00,
2013-12-25 22:43:00,35.0,21.0,30.23,South,180,0.0,2.0,58,0.00,,,0.00,weatherlink.com 1.10,2013-12-26 03:43:00,
2013-12-25 22:58:00,35.0,22.0,30.23,South,180,0.0,2.0,60,0.00,,,0.00,weatherlink.com 1.10,2013-12-26 03:58:00,
2013-12-25 23:13:00,35.1,22.0,30.23,South,180,0.0,2.0,59,0.00,,,0.00,weatherlink.com 1.10,2013-12-26 04:13:00,
2013-12-25 23:28:00,35.1,22.0,30.23,South,180,0.0,3.0,59,0.00,,,0.00,weatherlink.com 1.10,2013-12-26 04:28:00,
2013-12-25 23:43:00,35.1,21.0,30.22,South,180,2.0,4.0,58,0.00,,,0.00,weatherlink.com 1.10,2013-12-26 04:43:00,
2013-12-25 23:58:00,35.2,22.0,30.22,South,180,0.0,3.0,59,0.00,,,0.00,weatherlink.com 1.10,2013-12-26 04:58:00,